Location: Gro� Glienicke
(52.4675°N, 13.1079°E)
Time: 18:07:01
(UTC+00:00)

Cosmos 1606 - Pass Details

Date: 06 July 2020
Orbit: 504 x 527 km, 82.5° (Epoch: 12 August)

Event Time Altitude Azimuth Distance (km) Brightness Sun altitude
Rises 22:29:30 0° 347° (NNW) 2,667 8.3 -14.4°
Reaches altitude 10° 22:31:39 10° 344° (NNW) 1,776 6.8 -14.4°
Maximum altitude 22:35:31 67° 263° (W) 577 2.9 -14.5°
Enters shadow 22:37:35 26° 187° (S) 1,063 3.7 -14.6°
